SHT21B EGJB-EGLL

Flight info

Callsign SHT21B
Flight time 0h 34m
Altitude 19000
Route ORIST L982 ROXOG
Aircraft A320/M-SDE3FGIJ1KRWXY/SB1

Departure

Time 2026-05-03 21:54
Airport Guernsey Airport (EGJB)

Arrival

Time 2026-05-03 22:28
Airport London Heathrow Airport (EGLL)
Time Latitude Longitude Altitude Speed Heading
2026-05-03 21:42 49.43252 -2.59621 337 ft 0 kts 178°
2026-05-03 21:49 49.43263 -2.59622 353 ft 4 kts 177°
2026-05-03 21:49 49.43290 -2.59623 353 ft 4 kts 178°
2026-05-03 21:49 49.43318 -2.59625 350 ft 4 kts 177°
2026-05-03 21:50 49.43340 -2.59626 347 ft 2 kts 178°
2026-05-03 21:50 49.43351 -2.59627 344 ft 2 kts 178°
2026-05-03 21:50 49.43355 -2.59627 336 ft 0 kts 178°
2026-05-03 21:51 49.43344 -2.59624 335 ft 2 kts 163°
2026-05-03 21:51 49.43344 -2.59601 338 ft 4 kts 83°
2026-05-03 21:52 49.43356 -2.59541 349 ft 7 kts 72°
2026-05-03 21:52 49.43368 -2.59422 348 ft 15 kts 86°
2026-05-03 21:52 49.43371 -2.59304 346 ft 17 kts 89°
2026-05-03 21:52 49.43423 -2.59198 354 ft 12 kts
2026-05-03 21:53 49.43506 -2.59203 349 ft 9 kts 358°
2026-05-03 21:53 49.43523 -2.59262 349 ft 10 kts 266°
2026-05-03 21:53 49.43512 -2.59675 338 ft 83 kts 268°
2026-05-03 21:53 49.43466 -2.61469 599 ft 146 kts 266°
2026-05-03 21:54 49.43440 -2.62513 1203 ft 144 kts 266°
2026-05-03 21:54 49.43395 -2.64071 1959 ft 155 kts 266°
2026-05-03 21:54 49.43337 -2.65915 2310 ft 185 kts 266°
2026-05-03 21:54 49.43278 -2.67925 3007 ft 186 kts 266°
2026-05-03 21:55 49.43222 -2.69876 4109 ft 175 kts 266°
2026-05-03 21:55 49.43358 -2.71655 5188 ft 172 kts 289°
2026-05-03 21:55 49.44066 -2.73182 6074 ft 179 kts 319°
2026-05-03 21:55 49.45230 -2.74015 6616 ft 203 kts 351°
2026-05-03 21:56 49.46693 -2.73684 7020 ft 227 kts 21°
2026-05-03 21:56 49.48226 -2.72741 7593 ft 244 kts 22°
2026-05-03 21:56 49.49824 -2.71741 8513 ft 255 kts 22°
2026-05-03 21:56 49.51551 -2.70666 9111 ft 280 kts 22°
2026-05-03 21:57 49.53422 -2.69507 9817 ft 298 kts 21°
2026-05-03 21:57 49.55378 -2.68301 10731 ft 306 kts 21°
2026-05-03 21:57 49.57373 -2.67076 11750 ft 311 kts 21°
2026-05-03 21:57 49.59402 -2.65837 12804 ft 316 kts 21°
2026-05-03 21:58 49.61460 -2.64586 13852 ft 321 kts 21°
2026-05-03 21:58 49.63555 -2.63309 14783 ft 326 kts 21°
2026-05-03 21:58 49.65684 -2.62010 15688 ft 332 kts 21°
2026-05-03 21:58 49.67841 -2.60629 16428 ft 338 kts 27°
2026-05-03 21:59 49.69878 -2.58599 17027 ft 343 kts 41°
2026-05-03 21:59 49.71550 -2.56017 17275 ft 357 kts 54°
2026-05-03 21:59 49.72947 -2.52741 17422 ft 373 kts 61°
2026-05-03 21:59 49.74331 -2.49234 17582 ft 390 kts 61°
2026-05-03 22:00 49.75765 -2.45625 18014 ft 397 kts 60°
2026-05-03 22:00 49.77225 -2.41964 18531 ft 402 kts 60°
2026-05-03 22:00 49.78717 -2.38249 18863 ft 412 kts 60°
2026-05-03 22:00 49.80239 -2.34451 18938 ft 428 kts 60°
2026-05-03 22:01 49.81836 -2.30451 18961 ft 445 kts 60°
2026-05-03 22:01 49.83510 -2.26253 18957 ft 460 kts 60°
2026-05-03 22:01 49.85184 -2.22052 18958 ft 465 kts 60°
2026-05-03 22:01 49.86914 -2.17714 18957 ft 467 kts 60°
2026-05-03 22:02 49.88595 -2.13489 18956 ft 467 kts 60°
2026-05-03 22:02 49.90295 -2.09200 18953 ft 467 kts 60°
2026-05-03 22:02 49.91989 -2.04913 18955 ft 467 kts 60°
2026-05-03 22:02 49.93686 -2.00607 18952 ft 467 kts 60°
2026-05-03 22:03 49.95376 -1.96299 18954 ft 467 kts 60°
2026-05-03 22:03 49.97063 -1.91990 18953 ft 467 kts 60°
2026-05-03 22:03 49.98906 -1.87827 18951 ft 468 kts 51°
2026-05-03 22:03 50.01212 -1.84249 18950 ft 470 kts 40°
2026-05-03 22:04 50.03922 -1.81412 18945 ft 470 kts 28°
2026-05-03 22:04 50.06842 -1.79113 18942 ft 470 kts 26°
2026-05-03 22:04 50.09759 -1.76820 18944 ft 470 kts 27°
2026-05-03 22:04 50.12600 -1.74304 18937 ft 469 kts 35°
2026-05-03 22:05 50.15154 -1.71134 18941 ft 468 kts 41°
2026-05-03 22:05 50.17642 -1.67868 18941 ft 468 kts 40°
2026-05-03 22:05 50.20114 -1.64650 18942 ft 468 kts 40°
2026-05-03 22:05 50.22619 -1.61401 18936 ft 468 kts 40°
2026-05-03 22:06 50.25173 -1.58248 18934 ft 468 kts 34°
2026-05-03 22:06 50.28011 -1.55764 18935 ft 468 kts 23°
2026-05-03 22:06 50.31074 -1.54064 18933 ft 467 kts 16°
2026-05-03 22:06 50.34186 -1.52555 18933 ft 467 kts 17°
2026-05-03 22:07 50.37288 -1.51037 18933 ft 467 kts 17°
2026-05-03 22:07 50.40395 -1.49509 18741 ft 467 kts 17°
2026-05-03 22:07 50.43489 -1.47984 18495 ft 465 kts 17°
2026-05-03 22:07 50.46570 -1.46463 18249 ft 463 kts 17°
2026-05-03 22:08 50.49632 -1.44954 17987 ft 461 kts 17°
2026-05-03 22:08 50.52685 -1.43432 17721 ft 459 kts 19°
2026-05-03 22:08 50.55582 -1.41364 17442 ft 457 kts 29°
2026-05-03 22:08 50.58361 -1.38962 17175 ft 455 kts 29°
2026-05-03 22:09 50.61127 -1.36579 16918 ft 453 kts 28°
2026-05-03 22:09 50.63882 -1.34216 16648 ft 450 kts 28°
2026-05-03 22:09 50.66634 -1.31860 16384 ft 448 kts 28°
2026-05-03 22:10 50.72082 -1.27173 15875 ft 444 kts 29°
2026-05-03 22:10 50.74793 -1.24827 15623 ft 442 kts 29°
2026-05-03 22:10 50.77469 -1.22445 15367 ft 440 kts 31°
2026-05-03 22:10 50.80041 -1.19955 15122 ft 438 kts 33°
2026-05-03 22:11 50.82590 -1.17326 14876 ft 437 kts 34°
2026-05-03 22:11 50.85104 -1.14648 14627 ft 435 kts 34°
2026-05-03 22:11 50.87604 -1.11961 14385 ft 433 kts 34°
2026-05-03 22:11 50.90096 -1.09303 14145 ft 432 kts 34°
2026-05-03 22:12 50.92591 -1.06681 13902 ft 430 kts 34°
2026-05-03 22:12 50.95099 -1.04069 13651 ft 429 kts 34°
2026-05-03 22:12 50.97587 -1.01490 13386 ft 428 kts 33°
2026-05-03 22:12 51.00040 -0.98845 13116 ft 425 kts 39°
2026-05-03 22:13 51.02158 -0.95580 12916 ft 422 kts 49°
2026-05-03 22:13 51.04108 -0.92102 12936 ft 422 kts 49°
2026-05-03 22:13 51.06061 -0.88617 12811 ft 419 kts 49°
2026-05-03 22:13 51.07980 -0.85191 12062 ft 409 kts 49°
2026-05-03 22:14 51.09835 -0.81882 10718 ft 400 kts 49°
2026-05-03 22:14 51.11693 -0.78567 9890 ft 401 kts 49°
2026-05-03 22:14 51.13543 -0.75269 9290 ft 398 kts 49°
2026-05-03 22:14 51.15378 -0.71988 8783 ft 396 kts 49°
2026-05-03 22:15 51.17198 -0.68724 8399 ft 394 kts 49°
2026-05-03 22:15 51.19019 -0.65455 8146 ft 392 kts 49°
2026-05-03 22:15 51.20826 -0.62202 7981 ft 392 kts 49°
2026-05-03 22:15 51.22634 -0.58947 7928 ft 391 kts 49°
2026-05-03 22:16 51.24425 -0.55720 7940 ft 391 kts 49°
2026-05-03 22:16 51.26210 -0.52500 7932 ft 379 kts 49°
2026-05-03 22:16 51.27866 -0.49509 7954 ft 329 kts 49°
2026-05-03 22:16 51.29264 -0.46984 7928 ft 289 kts 49°
2026-05-03 22:17 51.30533 -0.44689 7942 ft 269 kts 49°
2026-05-03 22:17 51.31737 -0.42439 7941 ft 265 kts 57°
2026-05-03 22:17 51.32497 -0.39782 7946 ft 262 kts 74°
2026-05-03 22:17 51.33026 -0.37000 7951 ft 262 kts 76°
2026-05-03 22:18 51.33529 -0.34196 7946 ft 259 kts 76°
2026-05-03 22:18 51.34017 -0.31475 7945 ft 252 kts 76°
2026-05-03 22:18 51.34499 -0.28781 7943 ft 252 kts 76°
2026-05-03 22:18 51.34979 -0.26095 7945 ft 251 kts 76°
2026-05-03 22:19 51.35458 -0.23407 7849 ft 250 kts 76°
2026-05-03 22:19 51.35936 -0.20735 7570 ft 249 kts 76°
2026-05-03 22:19 51.36412 -0.18072 7304 ft 248 kts 76°
2026-05-03 22:19 51.36888 -0.15414 7033 ft 247 kts 76°
2026-05-03 22:20 51.37359 -0.12782 6764 ft 246 kts 76°
2026-05-03 22:20 51.37830 -0.10146 6488 ft 245 kts 76°
2026-05-03 22:20 51.38297 -0.07528 6201 ft 244 kts 76°
2026-05-03 22:20 51.38754 -0.04959 5927 ft 243 kts 76°
2026-05-03 22:21 51.39291 -0.02431 5742 ft 238 kts 61°
2026-05-03 22:21 51.40424 -0.00600 5602 ft 231 kts 27°
2026-05-03 22:21 51.41936 0.00050 5471 ft 222 kts
2026-05-03 22:21 51.43462 0.00086 5339 ft 212 kts 343°
2026-05-03 22:22 51.44663 -0.00990 5216 ft 199 kts 310°
2026-05-03 22:22 51.45538 -0.02699 5089 ft 196 kts 303°
2026-05-03 22:22 51.46279 -0.04527 4962 ft 194 kts 292°
2026-05-03 22:22 51.46684 -0.06575 4725 ft 192 kts 276°
2026-05-03 22:23 51.46820 -0.08705 4449 ft 192 kts 270°
2026-05-03 22:23 51.46919 -0.10836 4199 ft 193 kts 276°
2026-05-03 22:23 51.47185 -0.12929 4009 ft 189 kts 280°
2026-05-03 22:23 51.47444 -0.14930 3887 ft 177 kts 277°
2026-05-03 22:24 51.47650 -0.16847 3657 ft 172 kts 277°
2026-05-03 22:24 51.47801 -0.18751 3421 ft 171 kts 272°
2026-05-03 22:24 51.47851 -0.20636 3208 ft 166 kts 269°
2026-05-03 22:24 51.47861 -0.22462 2954 ft 165 kts 267°
2026-05-03 22:25 51.47831 -0.24321 2650 ft 168 kts 266°
2026-05-03 22:25 51.47801 -0.26181 2332 ft 165 kts 267°
2026-05-03 22:25 51.47794 -0.27989 1990 ft 161 kts 268°
2026-05-03 22:25 51.47813 -0.29767 1706 ft 157 kts 268°
2026-05-03 22:26 51.47820 -0.31465 1450 ft 152 kts 268°
2026-05-03 22:26 51.47812 -0.33180 1207 ft 150 kts 266°
2026-05-03 22:26 51.47794 -0.34823 1024 ft 149 kts 268°
2026-05-03 22:26 51.47804 -0.36472 911 ft 149 kts 268°
2026-05-03 22:27 51.47783 -0.38168 755 ft 152 kts 268°
2026-05-03 22:27 51.47783 -0.39842 569 ft 150 kts 267°
2026-05-03 22:27 51.47768 -0.41494 362 ft 148 kts 268°
2026-05-03 22:27 51.47770 -0.43136 162 ft 145 kts 268°
2026-05-03 22:28 51.47764 -0.44651 89 ft 119 kts 269°
2026-05-03 22:28 51.47761 -0.45616 85 ft 40 kts 270°
2026-05-03 22:28 51.47681 -0.45939 90 ft 30 kts 212°
2026-05-03 22:28 51.47581 -0.46068 89 ft 12 kts 221°
2026-05-03 22:29 51.47527 -0.46096 91 ft 10 kts 192°
2026-05-03 22:29 51.47514 -0.46147 88 ft 1 kts 270°
2026-05-03 22:29 51.47514 -0.46179 87 ft 4 kts 270°
2026-05-03 22:29 51.47516 -0.46244 87 ft 8 kts 270°
2026-05-03 22:30 51.47516 -0.46351 87 ft 12 kts 269°
2026-05-03 22:30 51.47514 -0.46541 87 ft 19 kts 269°
2026-05-03 22:30 51.47505 -0.46743 90 ft 13 kts 238°
2026-05-03 22:30 51.47493 -0.46899 87 ft 16 kts 270°
2026-05-03 22:31 51.47491 -0.47119 87 ft 22 kts 269°
2026-05-03 22:31 51.47490 -0.47382 87 ft 25 kts 269°
2026-05-03 22:31 51.47489 -0.47669 87 ft 27 kts 270°
2026-05-03 22:31 51.47488 -0.47979 88 ft 29 kts 269°
2026-05-03 22:32 51.47488 -0.48198 89 ft 1 kts 270°
2026-05-03 22:32 51.47488 -0.48225 88 ft 5 kts 269°
2026-05-03 22:32 51.47487 -0.48313 89 ft 10 kts 269°
2026-05-03 22:32 51.47478 -0.48462 90 ft 14 kts 232°
2026-05-03 22:33 51.47373 -0.48477 87 ft 17 kts 180°
2026-05-03 22:33 51.47245 -0.48476 87 ft 20 kts 180°
2026-05-03 22:33 51.47186 -0.48506 89 ft 5 kts 251°
2026-05-03 22:33 51.47187 -0.48586 87 ft 9 kts 269°
2026-05-03 22:34 51.47187 -0.48602 87 ft 0 kts 269°